Location: Martley
(52.2333°N, 2.3667°W)
Time: 12:28:24
(UTC+00:00)

ADEOS Rocket - Pass Details

Date: 11 December 2019
Orbit: 859 x 1307 km, 98.7° (Epoch: 27 January)

Event Time Altitude Azimuth Distance (km) Brightness Sun altitude
Rises 07:24:06 0° 189° (S) 4,048 6.5 -6.4°
Reaches altitude 10° 07:27:02 10° 197° (SSW) 3,025 5.8 -6.0°
Maximum altitude 07:33:20 38° 264° (W) 1,559 3.7 -5.2°
Drops below altitude 10° 07:39:05 10° 332° (NNW) 2,755 4.8 -4.5°
Sets 07:41:39 0° 340° (NNW) 3,648 5.5 -4.1°
